Hillsdale, MI

4:48 AM EST on November 15, 2019 (GMT -0500)
Hillsdale Municipal

Weather History for KJYM - September, 2019

Change the Weather History Date:

Thursday, September 26, 2019

  Actual Average Record
Temperature  
Mean Temperature 57 °F -  
Max Temperature 70 °F 68 °F 87 °F (1998)
Min Temperature 44 °F 44 °F 28 °F (1966)
Degree Days  
Heating Degree Days 8    
Growing Degree Days 7 (Base 50)    
Moisture  
Dew Point 46 °F    
Average Humidity 61    
Maximum Humidity 88    
Minimum Humidity 31    
Precipitation  
Precipitation 0.00 in - - ()
Sea Level Pressure  
Sea Level Pressure 29.90 in    
Wind  
Wind Speed 8 mph ()    
Max Wind Speed 20 mph    
Max Gust Speed 26 mph    
Visibility 10.0 miles    
Events Rain    
Averages and records for this station are not official NWS values.
T = Trace of Precipitation, MM = Missing Value Source: Averaged Metar Reports

Daily Weather History Graph

Daily Weather History Graph

Search for Another Location

Airport or City:

Astronomy

Sep. 26, 2019 Rise Set
Actual Time 7:29 AM EDT 7:29 PM EDT
Civil Twilight 7:01 AM EDT 7:56 PM EDT
Nautical Twilight 6:29 AM EDT 8:29 PM EDT
Astronomical Twilight 5:56 AM EDT 9:02 PM EDT
Moon 4:31 AM EDT (9/26) 6:44 PM EDT (9/26)
Length of Visible Light 12h 54m
Length of Day
11h 59m
Waning Crescent, 7% of the Moon is Illuminated
Sep 26
Waning Crescent
Sep 28
New
Oct 5
First Quarter
Oct 13
Full
Oct 21
Last Quarter

Hourly Weather History & Observations

Time (EDT) Temp. Dew Point Humidity Pressure Visibility Wind Dir Wind Speed Gust Speed Precip Events Conditions
12:19 AM 66.6 °F 59.7 °F 79% 29.79 in 10.0 mi West 8.1 mph - N/A   Clear
12:37 AM 66.2 °F 57.4 °F 73% 29.80 in 10.0 mi West 11.5 mph - N/A   Scattered Clouds
12:55 AM 66.2 °F 55.8 °F 69% 29.80 in 10.0 mi WNW 9.2 mph - N/A   Scattered Clouds
12:56 AM 66.2 °F 55.8 °F 69% 29.80 in 10.0 mi WNW 10.4 mph - N/A   Scattered Clouds
1:15 AM 65.8 °F 55.0 °F 68% 29.81 in 10.0 mi WNW 11.5 mph - N/A   Scattered Clouds
1:16 AM 65.7 °F 55.0 °F 69% 29.81 in 10.0 mi WNW 9.2 mph - N/A   Scattered Clouds
1:35 AM 65.3 °F 54.7 °F 68% 29.81 in 10.0 mi WNW 11.5 mph 17.3 mph N/A   Clear
1:57 AM 64.4 °F 54.5 °F 70% 29.81 in 10.0 mi WNW 8.1 mph - N/A   Clear
2:16 AM 63.7 °F 54.0 °F 71% 29.81 in 10.0 mi WNW 5.8 mph - N/A   Clear
2:35 AM 62.8 °F 53.8 °F 72% 29.79 in 10.0 mi WNW 6.9 mph - N/A   Clear
2:55 AM 62.6 °F 54.0 °F 73% 29.79 in 10.0 mi WNW 5.8 mph - N/A   Scattered Clouds
2:56 AM 62.6 °F 54.0 °F 73% 29.80 in 10.0 mi WNW 5.8 mph - N/A   Scattered Clouds
3:19 AM 62.6 °F 54.1 °F 74% 29.79 in 10.0 mi WNW 8.1 mph - N/A   Overcast
3:37 AM 62.6 °F 53.8 °F 73% 29.81 in 10.0 mi WNW 8.1 mph - N/A   Mostly Cloudy
3:55 AM 62.6 °F 52.9 °F 70% 29.80 in 10.0 mi WNW 9.2 mph - N/A   Mostly Cloudy
3:56 AM 62.6 °F 52.9 °F 70% 29.80 in 10.0 mi WNW 8.1 mph - N/A   Mostly Cloudy
4:15 AM 62.2 °F 52.0 °F 69% 29.81 in 10.0 mi WNW 8.1 mph - N/A   Overcast
4:16 AM 62.2 °F 52.0 °F 69% 29.81 in 10.0 mi WNW 8.1 mph - N/A   Overcast
4:35 AM 61.7 °F 52.2 °F 71% 29.80 in 10.0 mi WNW 5.8 mph - N/A Rain Light Rain
4:40 AM 61.2 °F 52.7 °F 74% 29.81 in 10.0 mi West 4.6 mph - N/A Rain Light Rain
5:16 AM 59.5 °F 53.1 °F 79% 29.82 in 10.0 mi West 5.8 mph - N/A Rain Light Rain
5:35 AM 58.6 °F 53.6 °F 83% 29.81 in 10.0 mi WSW 3.5 mph - N/A Rain Light Rain
5:36 AM 58.6 °F 53.6 °F 83% 29.81 in 10.0 mi WSW 3.5 mph - N/A Rain Light Rain
5:55 AM 58.1 °F 53.8 °F 86% 29.81 in 10.0 mi WNW 5.8 mph - N/A Rain Light Rain
5:56 AM 58.1 °F 53.8 °F 86% 29.81 in 10.0 mi WNW 5.8 mph - N/A Rain Light Rain
6:19 AM 57.6 °F 53.6 °F 87% 29.82 in 10.0 mi West 4.6 mph - N/A   Mostly Cloudy
6:37 AM 57.6 °F 53.1 °F 85% 29.83 in 10.0 mi West 3.5 mph - N/A   Mostly Cloudy
6:55 AM 57.2 °F 52.9 °F 85% 29.84 in 10.0 mi West 3.5 mph - N/A   Mostly Cloudy
7:15 AM 57.2 °F 52.7 °F 85% 29.85 in 10.0 mi West 4.6 mph - N/A   Scattered Clouds
7:16 AM 57.2 °F 52.7 °F 85% 29.85 in 10.0 mi West 3.5 mph - N/A   Scattered Clouds
7:35 AM 56.7 °F 51.8 °F 84% 29.86 in 10.0 mi West 5.8 mph - N/A   Mostly Cloudy
7:57 AM 55.6 °F 50.9 °F 84% 29.86 in 10.0 mi West 5.8 mph - N/A   Mostly Cloudy
8:16 AM 56.3 °F 50.5 °F 81% 29.87 in 10.0 mi West 6.9 mph - N/A   Mostly Cloudy
8:35 AM 57.9 °F 50.9 °F 77% 29.88 in 10.0 mi West 9.2 mph - N/A   Mostly Cloudy
8:36 AM 58.1 °F 50.9 °F 77% 29.88 in 10.0 mi West 10.4 mph - N/A   Mostly Cloudy
8:55 AM 59.2 °F 51.1 °F 74% 29.88 in 10.0 mi West 9.2 mph - N/A   Overcast
8:56 AM 59.2 °F 51.1 °F 74% 29.88 in 10.0 mi West 9.2 mph - N/A   Overcast
9:37 AM 61.0 °F 50.0 °F 67% 29.89 in 10.0 mi WNW 13.8 mph 19.6 mph N/A   Mostly Cloudy
9:55 AM 61.7 °F 49.8 °F 65% 29.90 in 10.0 mi WNW 11.5 mph 19.6 mph N/A   Mostly Cloudy
9:56 AM 61.7 °F 49.6 °F 65% 29.90 in 10.0 mi WNW 10.4 mph 19.6 mph N/A   Mostly Cloudy
10:15 AM 61.9 °F 46.8 °F 58% 29.91 in 10.0 mi NW 16.1 mph 19.6 mph N/A   Mostly Cloudy
10:16 AM 61.9 °F 46.4 °F 57% 29.91 in 10.0 mi NW 15.0 mph 19.6 mph N/A   Mostly Cloudy
10:35 AM 62.8 °F 45.5 °F 53% 29.92 in 10.0 mi WNW 13.8 mph 23.0 mph N/A   Overcast
10:58 AM 64.0 °F 44.2 °F 49% 29.93 in 10.0 mi WNW 16.1 mph 23.0 mph N/A   Overcast
11:16 AM 63.5 °F 42.8 °F 47% 29.93 in 10.0 mi NW 13.8 mph - N/A   Overcast
11:35 AM 64.8 °F 41.7 °F 43% 29.93 in 10.0 mi WNW 13.8 mph 23.0 mph N/A   Mostly Cloudy
11:36 AM 64.8 °F 41.7 °F 43% 29.93 in 10.0 mi WNW 13.8 mph 23.0 mph N/A   Mostly Cloudy
11:55 AM 65.7 °F 39.7 °F 39% 29.93 in 10.0 mi WNW 13.8 mph 21.9 mph N/A   Mostly Cloudy
11:56 AM 65.8 °F 39.7 °F 38% 29.93 in 10.0 mi NW 15.0 mph 21.9 mph N/A   Mostly Cloudy
12:19 PM 66.6 °F 40.1 °F 38% 29.94 in 10.0 mi West 17.3 mph 23.0 mph N/A   Mostly Cloudy
12:37 PM 66.6 °F 39.0 °F 36% 29.94 in 10.0 mi WNW 19.6 mph 26.5 mph N/A   Mostly Cloudy
12:55 PM 67.1 °F 39.9 °F 37% 29.94 in 10.0 mi WNW 12.7 mph 24.2 mph N/A   Overcast
1:15 PM 68.2 °F 40.5 °F 36% 29.94 in 10.0 mi West 13.8 mph 18.4 mph N/A   Mostly Cloudy
1:16 PM 68.4 °F 40.8 °F 37% 29.94 in 10.0 mi West 11.5 mph 18.4 mph N/A   Mostly Cloudy
1:40 PM 68.4 °F 40.3 °F 36% 29.94 in 10.0 mi WNW 13.8 mph 19.6 mph N/A   Overcast
1:58 PM 68.5 °F 39.9 °F 35% 29.94 in 10.0 mi West 12.7 mph 20.7 mph N/A   Overcast
2:16 PM 69.3 °F 39.9 °F 34% 29.94 in 10.0 mi West 11.5 mph 19.6 mph N/A   Scattered Clouds
2:35 PM 68.9 °F 39.0 °F 34% 29.94 in 10.0 mi West 13.8 mph 21.9 mph N/A   Clear
2:55 PM 69.1 °F 38.8 °F 33% 29.93 in 10.0 mi WNW 13.8 mph 20.7 mph N/A   Scattered Clouds
2:56 PM 69.1 °F 38.8 °F 33% 29.93 in 10.0 mi WNW 15.0 mph 20.7 mph N/A   Scattered Clouds
3:19 PM 70.0 °F 39.0 °F 32% 29.93 in 10.0 mi West 12.7 mph 25.3 mph N/A   Scattered Clouds
3:37 PM 69.6 °F 37.9 °F 31% 29.94 in 10.0 mi WNW 12.7 mph 21.9 mph N/A   Scattered Clouds
3:55 PM 69.8 °F 37.8 °F 31% 29.94 in 10.0 mi WNW 16.1 mph 23.0 mph N/A   Scattered Clouds
3:56 PM 69.8 °F 37.8 °F 31% 29.94 in 10.0 mi WNW 13.8 mph 23.0 mph N/A   Scattered Clouds
4:15 PM 69.1 °F 37.8 °F 32% 29.93 in 10.0 mi West 12.7 mph 20.7 mph N/A   Clear
4:16 PM 69.1 °F 37.8 °F 32% 29.93 in 10.0 mi West 13.8 mph 20.7 mph N/A   Clear
4:35 PM 69.1 °F 37.9 °F 32% 29.93 in 10.0 mi NW 16.1 mph 19.6 mph N/A   Scattered Clouds
4:39 PM 68.9 °F 37.6 °F 32% 29.93 in 10.0 mi West 9.2 mph 19.6 mph N/A   Scattered Clouds
4:58 PM 69.3 °F 37.0 °F 31% 29.94 in 10.0 mi WNW 12.7 mph - N/A   Scattered Clouds
5:16 PM 68.2 °F 37.9 °F 33% 29.94 in 10.0 mi WNW 9.2 mph 17.3 mph N/A   Clear
5:35 PM 68.0 °F 37.6 °F 33% 29.94 in 10.0 mi WNW 12.7 mph 18.4 mph N/A   Clear
5:55 PM 66.9 °F 37.6 °F 34% 29.94 in 10.0 mi West 11.5 mph - N/A   Scattered Clouds
5:56 PM 66.9 °F 37.4 °F 34% 29.94 in 10.0 mi WNW 11.5 mph - N/A   Scattered Clouds
6:19 PM 65.8 °F 36.7 °F 34% 29.94 in 10.0 mi West 9.2 mph - N/A   Mostly Cloudy
6:37 PM 64.9 °F 37.4 °F 36% 29.95 in 10.0 mi West 6.9 mph - N/A   Overcast
6:55 PM 63.7 °F 38.3 °F 39% 29.96 in 10.0 mi West 5.8 mph - N/A   Overcast
7:15 PM 61.0 °F 39.2 °F 45% 29.96 in 10.0 mi West 5.8 mph - N/A   Overcast
7:35 PM 58.8 °F 39.2 °F 48% 29.97 in 10.0 mi West 3.5 mph - N/A   Mostly Cloudy
7:40 PM 58.6 °F 39.4 °F 49% 29.97 in 10.0 mi Calm Calm - N/A   Mostly Cloudy
7:58 PM 56.1 °F 40.6 °F 56% 29.97 in 10.0 mi Calm Calm - N/A   Mostly Cloudy
8:16 PM 53.2 °F 42.3 °F 66% 29.98 in 10.0 mi Calm Calm - N/A   Mostly Cloudy
8:35 PM 51.1 °F 42.3 °F 72% 29.98 in 10.0 mi Calm Calm - N/A   Overcast
8:55 PM 48.7 °F 41.0 °F 75% 29.98 in 10.0 mi Calm Calm - N/A   Mostly Cloudy
8:56 PM 48.4 °F 41.0 °F 76% 29.98 in 10.0 mi Calm Calm - N/A   Mostly Cloudy
9:19 PM 49.5 °F 41.2 °F 73% 29.99 in 10.0 mi Calm Calm - N/A   Scattered Clouds
9:37 PM 46.2 °F 40.3 °F 80% 29.99 in 10.0 mi Calm Calm - N/A   Clear
9:55 PM 47.5 °F 41.9 °F 81% 30.00 in 10.0 mi Calm Calm - N/A   Scattered Clouds
10:15 PM 47.8 °F 41.7 °F 79% 30.00 in 10.0 mi Calm Calm - N/A   Scattered Clouds
10:35 PM 46.8 °F 41.4 °F 81% 30.01 in 10.0 mi Calm Calm - N/A   Clear
10:40 PM 47.7 °F 41.9 °F 80% 30.01 in 10.0 mi Calm Calm - N/A   Clear
10:58 PM 45.3 °F 40.6 °F 84% 30.01 in 10.0 mi Calm Calm - N/A   Clear
11:16 PM 46.4 °F 41.9 °F 84% 30.01 in 10.0 mi Calm Calm - N/A   Clear
11:35 PM 45.3 °F 41.9 °F 88% 30.00 in 10.0 mi Calm Calm - N/A   Clear
11:55 PM 44.4 °F 41.0 °F 88% 29.99 in 10.0 mi Calm Calm - N/A   Clear
11:56 PM 44.4 °F 41.0 °F 88% 29.99 in 10.0 mi Calm Calm - N/A   Clear